WEN3628 CYYC-KPDX

Flight info

Callsign WEN3628
Flight time N/A
Altitude 24000
Route DCT DUMRA Q890 ROPLA DCT GEG DCT JORAD HHOOD6
Aircraft DH8D/M-SDE2E3FGRY/H

Departure

Time N/A
Airport Calgary International Airport (CYYC)

Arrival

Time 2026-05-06 23:30
Airport Portland International Airport (KPDX)
Time Latitude Longitude Altitude Speed Heading
2026-05-06 23:07 45.88092 -120.34521 23973 ft 328 kts 231°
2026-05-06 23:07 45.86530 -120.36919 23978 ft 328 kts 231°
2026-05-06 23:08 45.84980 -120.39295 23985 ft 328 kts 231°
2026-05-06 23:08 45.83415 -120.41694 23991 ft 328 kts 231°
2026-05-06 23:08 45.81867 -120.44064 24003 ft 328 kts 231°
2026-05-06 23:08 45.80311 -120.46445 24017 ft 329 kts 231°
2026-05-06 23:09 45.78748 -120.48834 24030 ft 331 kts 231°
2026-05-06 23:09 45.77177 -120.51262 24038 ft 331 kts 233°
2026-05-06 23:09 45.76042 -120.54085 24041 ft 323 kts 255°
2026-05-06 23:09 45.75426 -120.57170 24036 ft 324 kts 258°
2026-05-06 23:10 45.74840 -120.60271 24048 ft 326 kts 258°
2026-05-06 23:10 45.74249 -120.63416 24054 ft 327 kts 258°
2026-05-06 23:10 45.73655 -120.66549 24055 ft 328 kts 257°
2026-05-06 23:10 45.73054 -120.69711 24052 ft 330 kts 257°
2026-05-06 23:11 45.72446 -120.72889 24050 ft 330 kts 257°
2026-05-06 23:11 45.71840 -120.76043 24050 ft 331 kts 257°
2026-05-06 23:11 45.71226 -120.79229 24050 ft 331 kts 257°
2026-05-06 23:11 45.70609 -120.82422 23971 ft 334 kts 257°
2026-05-06 23:12 45.69993 -120.85613 23561 ft 339 kts 257°
2026-05-06 23:12 45.69364 -120.88855 23128 ft 341 kts 257°
2026-05-06 23:12 45.68721 -120.92156 22689 ft 344 kts 257°
2026-05-06 23:12 45.68075 -120.95467 22252 ft 346 kts 257°
2026-05-06 23:13 45.67426 -120.98786 21815 ft 348 kts 257°
2026-05-06 23:13 45.66784 -121.02064 21384 ft 349 kts 257°
2026-05-06 23:13 45.66125 -121.05426 20942 ft 350 kts 257°
2026-05-06 23:13 45.65470 -121.08757 20505 ft 351 kts 257°
2026-05-06 23:14 45.64807 -121.12135 20065 ft 353 kts 257°
2026-05-06 23:14 45.64142 -121.15524 19624 ft 355 kts 257°
2026-05-06 23:14 45.63478 -121.18902 19186 ft 355 kts 257°
2026-05-06 23:14 45.62811 -121.22289 18744 ft 356 kts 257°
2026-05-06 23:15 45.62139 -121.25695 18302 ft 356 kts 257°
2026-05-06 23:15 45.61462 -121.29112 17857 ft 355 kts 256°
2026-05-06 23:15 45.60792 -121.32492 17415 ft 354 kts 256°
2026-05-06 23:15 45.60132 -121.35818 16979 ft 353 kts 256°
2026-05-06 23:16 45.59460 -121.39195 16536 ft 352 kts 256°
2026-05-06 23:16 45.58789 -121.42562 16093 ft 352 kts 256°
2026-05-06 23:16 45.58124 -121.45887 15655 ft 351 kts 256°
2026-05-06 23:16 45.57450 -121.49252 15211 ft 351 kts 256°
2026-05-06 23:17 45.56779 -121.52591 14770 ft 350 kts 256°
2026-05-06 23:17 45.56109 -121.55927 14328 ft 350 kts 256°
2026-05-06 23:17 45.55444 -121.59227 13890 ft 349 kts 256°
2026-05-06 23:17 45.54781 -121.62517 13434 ft 338 kts 256°
2026-05-06 23:18 45.54143 -121.65662 12984 ft 329 kts 255°
2026-05-06 23:18 45.53511 -121.68773 12529 ft 321 kts 255°
2026-05-06 23:18 45.53003 -121.71830 12060 ft 312 kts 265°
2026-05-06 23:18 45.53024 -121.74861 11624 ft 303 kts 275°
2026-05-06 23:19 45.53154 -121.77837 11178 ft 298 kts 275°
2026-05-06 23:19 45.53286 -121.80730 10735 ft 293 kts 275°
2026-05-06 23:19 45.53418 -121.83637 10283 ft 289 kts 275°
2026-05-06 23:19 45.53542 -121.86459 9840 ft 285 kts 275°
2026-05-06 23:20 45.53663 -121.89262 9394 ft 281 kts 274°
2026-05-06 23:20 45.53780 -121.92005 8948 ft 276 kts 274°
2026-05-06 23:20 45.53893 -121.94694 8507 ft 273 kts 274°
2026-05-06 23:20 45.54005 -121.97412 8058 ft 271 kts 274°
2026-05-06 23:21 45.54113 -122.00064 7618 ft 268 kts 274°
2026-05-06 23:21 45.54201 -122.02647 7168 ft 259 kts 271°
2026-05-06 23:21 45.53750 -122.05071 6683 ft 251 kts 240°
2026-05-06 23:21 45.52786 -122.07101 6256 ft 244 kts 236°
2026-05-06 23:22 45.51826 -122.09041 5810 ft 238 kts 235°
2026-05-06 23:22 45.50882 -122.10931 5363 ft 233 kts 235°
2026-05-06 23:22 45.49962 -122.12767 4915 ft 227 kts 235°
2026-05-06 23:22 45.49059 -122.14571 4469 ft 223 kts 235°
2026-05-06 23:23 45.48160 -122.16363 4035 ft 231 kts 235°
2026-05-06 23:23 45.47316 -122.18397 3632 ft 247 kts 253°
2026-05-06 23:23 45.47159 -122.20779 3585 ft 237 kts 271°
2026-05-06 23:23 45.47161 -122.23099 3578 ft 229 kts 270°
2026-05-06 23:24 45.47163 -122.25303 3639 ft 215 kts 271°
2026-05-06 23:24 45.47164 -122.27376 3657 ft 203 kts 270°
2026-05-06 23:24 45.47162 -122.29314 3662 ft 191 kts 270°
2026-05-06 23:24 45.47328 -122.31125 3651 ft 177 kts 294°
2026-05-06 23:25 45.47945 -122.32547 3657 ft 163 kts 304°
2026-05-06 23:25 45.48519 -122.34037 3755 ft 182 kts 297°
2026-05-06 23:25 45.49162 -122.35731 3783 ft 210 kts 301°
2026-05-06 23:25 45.49939 -122.37635 3461 ft 225 kts 300°
2026-05-06 23:26 45.50684 -122.39561 3125 ft 216 kts 300°
2026-05-06 23:26 45.51392 -122.41371 2790 ft 210 kts 300°
2026-05-06 23:26 45.52101 -122.43175 2423 ft 204 kts 300°
2026-05-06 23:26 45.52772 -122.44893 2116 ft 196 kts 300°
2026-05-06 23:27 45.53411 -122.46523 1817 ft 177 kts 300°
2026-05-06 23:27 45.53969 -122.47952 1603 ft 156 kts 300°
2026-05-06 23:27 45.54463 -122.49216 1345 ft 137 kts 300°
2026-05-06 23:27 45.54914 -122.50369 1271 ft 131 kts 301°
2026-05-06 23:28 45.55379 -122.51534 1137 ft 139 kts 301°
2026-05-06 23:28 45.55864 -122.52767 953 ft 145 kts 300°
2026-05-06 23:28 45.56357 -122.54027 772 ft 146 kts 301°
2026-05-06 23:28 45.56855 -122.55296 602 ft 145 kts 300°
2026-05-06 23:29 45.57329 -122.56535 378 ft 147 kts 300°
2026-05-06 23:29 45.57811 -122.57779 152 ft 141 kts 301°
2026-05-06 23:29 45.58269 -122.58954 26 ft 123 kts 300°
2026-05-06 23:29 45.58638 -122.59894 24 ft 76 kts 300°
2026-05-06 23:30 45.58804 -122.60193 23 ft 20 kts 342°
2026-05-06 23:30 45.58869 -122.60229 24 ft 0 kts 343°